| time (UTC) | temp C | wind direction | speed KPH | gust KPH | rain 1hr cm | rain 24hr cm | rain mn cm | humidity % | barometer mb |
| 20260508203100 | 7 | 310 | 0.0 | 0.0 | 0.00 | 0.51 | 0.00 | 80 | 1002.0 |
| 20260508201559 | 8 | 275 | 0.0 | 0.0 | 0.00 | 0.51 | 0.00 | 80 | 1001.9 |
| 20260508200112 | 8 | 200 | 0.0 | 0.0 | 0.00 | 0.51 | 0.00 | 80 | 1001.6 |
| 20260508194603 | 8 | 297 | 0.0 | 1.6 | 0.00 | 1.37 | 0.00 | 80 | 1001.4 |
| 20260508193150 | 8 | 192 | 0.0 | 0.0 | 0.00 | 1.37 | 0.00 | 82 | 1001.4 |
| 20260508191605 | 8 | 12 | 0.0 | 1.6 | 0.00 | 1.37 | 0.00 | 82 | 1001.3 |
| 20260508190059 | 8 | 213 | 0.0 | 1.6 | 0.00 | 1.37 | 0.00 | 81 | 1001.3 |
| 20260508184608 | 9 | 324 | 0.0 | 1.6 | 0.00 | 1.73 | 0.00 | 79 | 1001.1 |
| 20260508183126 | 9 | 195 | 0.0 | 1.6 | 0.00 | 1.73 | 0.00 | 80 | 1001.2 |
| 20260508181608 | 8 | 275 | 0.0 | 1.6 | 0.00 | 1.73 | 0.00 | 80 | 1001.3 |
| 20260508180100 | 8 | 19 | 0.0 | 0.0 | 0.00 | 1.73 | 0.00 | 83 | 1001.4 |
| 20260508174605 | 8 | 12 | 0.0 | 1.6 | 0.00 | 1.73 | 0.00 | 83 | 1001.3 |
| 20260508173059 | 9 | 20 | 0.0 | 0.0 | 0.00 | 1.73 | 0.00 | 85 | 1001.4 |
| 20260508171600 | 8 | 346 | 0.0 | 0.0 | 0.00 | 1.73 | 0.00 | 85 | 1001.7 |
| 20260508164602 | 8 | 198 | 0.0 | 0.0 | 0.00 | 1.73 | 0.00 | 84 | 1001.7 |
| 20260508163106 | 8 | 199 | 0.0 | 0.0 | 0.00 | 1.73 | 0.00 | 84 | 1001.7 |
| 20260508163001 | 8 | 199 | 0.0 | 0.0 | 0.00 | 1.73 | 0.00 | 84 | 1001.6 |
| 20260508161601 | 8 | 191 | 0.0 | 0.0 | 0.00 | 1.73 | 0.00 | 85 | 1001.5 |
| 20260508160100 | 8 | 191 | 0.0 | 0.0 | 0.00 | 1.73 | 0.00 | 84 | 1001.7 |
| 20260508160001 | 8 | 191 | 0.0 | 0.0 | 0.00 | 1.73 | 0.00 | 84 | 1001.7 |
| 20260508154623 | 6 | 191 | 0.0 | 0.0 | 0.00 | 1.73 | 0.00 | 89 | 1001.6 |
| 20260508153100 | 7 | 191 | 0.0 | 0.0 | 0.00 | 1.73 | 0.00 | 85 | 1001.7 |
| 20260508151609 | 7 | 190 | 0.0 | 0.0 | 0.00 | 1.73 | 0.00 | 86 | 1001.7 |
| 20260508150059 | 7 | 293 | 0.0 | 1.6 | 0.00 | 1.73 | 0.00 | 85 | 1001.8 |
| 20260508144610 | 8 | 204 | 0.0 | 0.0 | 0.00 | 1.73 | 0.00 | 85 | 1001.9 |
| 20260508143106 | 8 | 15 | 0.0 | 0.0 | 0.00 | 1.73 | 0.00 | 86 | 1001.7 |
| 20260508141606 | 8 | 261 | 0.0 | 3.2 | 0.00 | 1.73 | 0.00 | 83 | 1002.2 |
| 20260508140101 | 8 | 284 | 0.0 | 1.6 | 0.00 | 1.73 | 0.00 | 85 | 1002.4 |
| 20260508140001 | 8 | 350 | 0.0 | 1.6 | 0.00 | 1.73 | 0.00 | 84 | 1002.3 |
| 20260508134624 | 8 | 270 | 0.0 | 0.0 | 0.00 | 1.73 | 0.00 | 86 | 1002.5 |
| 20260508133104 | 8 | 188 | 0.0 | 0.0 | 0.00 | 1.73 | 0.00 | 87 | 1002.6 |
| 20260508131612 | 8 | 202 | 0.0 | 0.0 | 0.00 | 1.73 | 0.00 | 87 | 1002.4 |
| 20260508130100 | 7 | 188 | 0.0 | 0.0 | 0.00 | 1.73 | 0.00 | 89 | 1002.1 |
| 20260508124605 | 6 | 196 | 0.0 | 0.0 | 0.00 | 1.73 | 0.00 | 89 | 1002.0 |
| 20260508123100 | 7 | 207 | 0.0 | 0.0 | 0.00 | 1.73 | 0.00 | 88 | 1002.2 |
| 20260508121559 | 7 | 292 | 0.0 | 0.0 | 0.00 | 1.73 | 0.00 | 88 | 1002.1 |
| 20260508120100 | 7 | 203 | 0.0 | 0.0 | 0.00 | 1.73 | 0.00 | 91 | 1002.3 |
| 20260508114603 | 7 | 204 | 0.0 | 0.0 | 0.00 | 1.73 | 0.00 | 93 | 1002.5 |
| 20260508113101 | 6 | 236 | 0.0 | 0.0 | 0.00 | 1.73 | 0.00 | 96 | 1002.1 |
| 20260508111600 | 6 | 223 | 0.0 | 0.0 | 0.00 | 1.73 | 0.00 | 98 | 1002.3 |
| 20260508110114 | 5 | 223 | 0.0 | 0.0 | 0.00 | 1.73 | 0.00 | 98 | 1002.2 |
| 20260508104600 | 4 | 223 | 0.0 | 0.0 | 0.00 | 1.73 | 0.00 | 98 | 1002.6 |
| 20260508103101 | 4 | 223 | 0.0 | 0.0 | 0.00 | 1.73 | 0.00 | 98 | 1002.7 |
| 20260508101600 | 4 | 223 | 0.0 | 0.0 | 0.00 | 1.73 | 0.00 | 100 | 1002.6 |
| 20260508100200 | 3 | 223 | 0.0 | 0.0 | 0.00 | 1.73 | 0.00 | 98 | 1002.6 |
| 20260508094608 | 3 | 223 | 0.0 | 0.0 | 0.00 | 1.75 | 0.00 | 98 | 1002.2 |
| 20260508093100 | 3 | 223 | 0.0 | 0.0 | 0.00 | 1.75 | 0.00 | 98 | 1002.2 |
| 20260508091606 | 3 | 223 | 0.0 | 0.0 | 0.00 | 1.75 | 0.00 | 98 | 1002.0 |
| 20260508090115 | 3 | 223 | 0.0 | 0.0 | 0.00 | 1.75 | 0.00 | 98 | 1002.1 |
| 20260508084600 | 3 | 223 | 0.0 | 0.0 | 0.00 | 1.85 | 0.00 | 97 | 1002.2 |
| 20260508083100 | 3 | 223 | 0.0 | 0.0 | 0.00 | 1.85 | 0.00 | 97 | 1001.6 |
| 20260508081608 | 3 | 223 | 0.0 | 0.0 | 0.00 | 1.85 | 0.00 | 98 | 1001.6 |
| 20260508080100 | 4 | 223 | 0.0 | 0.0 | 0.00 | 1.85 | 0.00 | 98 | 1001.5 |
| 20260508074600 | 4 | 223 | 0.0 | 0.0 | 0.00 | 1.85 | 0.00 | 98 | 1001.6 |
| 20260508073111 | 4 | 223 | 0.0 | 0.0 | 0.00 | 1.85 | 0.00 | 97 | 1001.7 |
| 20260508071606 | 4 | 223 | 0.0 | 0.0 | 0.00 | 1.85 | 0.00 | 97 | 1001.8 |
| 20260508064619 | 4 | 223 | 0.0 | 0.0 | 0.00 | 1.85 | 0.00 | 97 | 1001.6 |
| 20260508063110 | 5 | 223 | 0.0 | 0.0 | 0.00 | 1.85 | 0.00 | 97 | 1001.6 |
| 20260508061609 | 5 | 223 | 0.0 | 0.0 | 0.00 | 1.85 | 0.00 | 97 | 1001.7 |
| 20260508060111 | 6 | 222 | 0.0 | 0.0 | 0.00 | 1.85 | 0.00 | 97 | 1001.5 |
| 20260508054600 | 7 | 349 | 0.0 | 0.0 | 0.00 | 1.85 | 0.00 | 97 | 1001.6 |
| 20260508053101 | 7 | 349 | 0.0 | 0.0 | 0.00 | 1.85 | 0.00 | 97 | 1001.6 |
| 20260508051614 | 7 | 349 | 0.0 | 0.0 | 0.00 | 1.85 | 0.00 | 98 | 1001.1 |
| 20260508044600 | 8 | 349 | 0.0 | 0.0 | 0.00 | 1.85 | 0.00 | 98 | 1001.3 |
| 20260508043100 | 8 | 349 | 0.0 | 0.0 | 0.00 | 1.85 | 0.00 | 98 | 1001.4 |
| 20260508041600 | 9 | 350 | 0.0 | 0.0 | 0.00 | 1.85 | 0.00 | 98 | 1001.4 |
| 20260508040105 | 9 | 349 | 0.0 | 0.0 | 0.00 | 1.85 | 0.00 | 98 | 1001.5 |
| 20260508034601 | 8 | 349 | 0.0 | 0.0 | 0.00 | 1.85 | 0.00 | 98 | 1001.6 |
| 20260508033102 | 8 | 349 | 0.0 | 0.0 | 0.00 | 1.85 | 0.00 | 98 | 1001.7 |
| 20260508031601 | 8 | 349 | 0.0 | 0.0 | 0.00 | 1.85 | 0.00 | 98 | 1001.8 |
| 20260508030104 | 8 | 349 | 0.0 | 0.0 | 0.00 | 1.85 | 0.00 | 98 | 1001.8 |
| 20260508024619 | 9 | 349 | 0.0 | 0.0 | 0.00 | 1.85 | 1.85 | 98 | 1001.7 |
| 20260508023058 | 9 | 349 | 0.0 | 0.0 | 0.00 | 1.85 | 1.85 | 98 | 1001.4 |
| 20260508021606 | 9 | 350 | 0.0 | 0.0 | 0.00 | 1.85 | 1.85 | 98 | 1001.5 |
| 20260508020111 | 9 | 349 | 0.0 | 0.0 | 0.00 | 1.85 | 1.85 | 98 | 1001.6 |
| 20260508014558 | 9 | 349 | 0.0 | 0.0 | 0.00 | 1.85 | 1.85 | 98 | 1001.7 |
| 20260508013058 | 8 | 350 | 0.0 | 0.0 | 0.00 | 1.85 | 1.85 | 98 | 1001.5 |
| 20260508011606 | 8 | 350 | 0.0 | 0.0 | 0.00 | 1.85 | 1.85 | 97 | 1001.3 |
| 20260508010058 | 8 | 346 | 0.0 | 0.0 | 0.00 | 1.85 | 1.85 | 97 | 1001.8 |
| 20260508004601 | 8 | 196 | 0.0 | 0.0 | 0.00 | 1.85 | 1.85 | 97 | 1001.8 |
| 20260508003058 | 8 | 196 | 0.0 | 0.0 | 0.00 | 1.85 | 1.85 | 97 | 1001.5 |
| 20260508001558 | 7 | 198 | 0.0 | 0.0 | 0.00 | 1.85 | 1.85 | 97 | 1001.5 |
| 20260508000058 | 8 | 355 | 0.0 | 0.0 | 0.00 | 1.85 | 1.85 | 97 | 1001.9 |
| 20260507234559 | 8 | 340 | 0.0 | 0.0 | 0.00 | 1.85 | 1.85 | 97 | 1001.8 |
| 20260507233101 | 8 | 360 | 0.0 | 1.6 | 0.00 | 1.85 | 1.85 | 96 | 1001.9 |
| 20260507231600 | 8 | 344 | 0.0 | 0.0 | 0.00 | 1.85 | 1.85 | 96 | 1002.5 |
| 20260507230110 | 8 | 216 | 0.0 | 0.0 | 0.00 | 1.85 | 1.85 | 96 | 1002.1 |
| 20260507224559 | 9 | 211 | 0.0 | 0.0 | 0.00 | 1.85 | 1.85 | 96 | 1002.5 |
| 20260507223058 | 10 | 9 | 0.0 | 1.6 | 0.00 | 1.85 | 1.85 | 96 | 1002.2 |
| 20260507221600 | 10 | 10 | 0.0 | 0.0 | 0.00 | 1.85 | 1.85 | 96 | 1002.5 |
| 20260507220100 | 10 | 10 | 0.0 | 1.6 | 0.00 | 1.85 | 1.85 | 97 | 1002.6 |
| 20260507214559 | 9 | 15 | 0.0 | 1.6 | 0.08 | 1.85 | 1.85 | 97 | 1002.4 |
| 20260507213059 | 8 | 355 | 0.0 | 1.6 | 0.18 | 1.85 | 1.85 | 96 | 1002.0 |
| 20260507211604 | 8 | 180 | 0.0 | 3.2 | 0.33 | 1.85 | 1.85 | 96 | 1001.8 |
| 20260507210111 | 8 | 360 | 0.0 | 3.2 | 0.46 | 1.83 | 1.83 | 96 | 1002.4 |
| 20260507204601 | 8 | 11 | 0.0 | 3.2 | 0.61 | 1.78 | 1.78 | 96 | 1003.3 |